Flag for U.S.A. Weather past 2 weeks in Chicago, Illinois, U.S.A.

Now
74 °F

Scattered clouds.


Feels Like: 74 °F
Forecast: 58 / 68 °F
Wind: 8 mph from Southwest

Location: Chicago Midway Airport

Current Time: Sep 20, 2014 at 8:13:01 PM

Latest Report: Sep 20, 2014 at 6:51 PM


Visibility: 10 mi

Pressure: 29.78 "Hg

Humidity: 79%

Dew point: 67 °F

Location of ChicagoLocation

Historic Weather in Chicago — Graph

°F

Chicago temperature yesterday

Maximum temperature yesterday: 76 °F (at 3:51 PM)
Minimum temperature yesterday: 57 °F (at 6:51 AM)
Average temperature yesterday: 67 °F

Past Weeks' High & Low Weather Summary

 TemperatureHumidityPressure
High82 °F (Sep 10, 3:51 PM)93% (Sep 10, 5:51 AM)30.37 "Hg (Sep 10, 5:51 AM)
Low42 °F (Sep 13, 5:51 AM)32% (Sep 19, 3:51 PM)29.52 "Hg (Sep 10, 2:51 PM)
Average63 °F68%30.08 "Hg
* Reported Sep 5 6:51 PM — Sep 20 6:51 PM, Chicago, Weather by CustomWeather, © 2014

Note: Actual official high and low records may vary slightly from our data, if they occured in-between our weather recording intervals... More about our weather records

Advertising

Chicago weather history for previous 24 hours

 ConditionsComfort  
Time TempWeatherWind HumidityBarometerVisibility
6:51 PM
Sep 20
74 °FScattered clouds.8 mph79%29.78 "Hg10 mi
5:51 PM76 °FScattered clouds.12 mph74%29.76 "Hg10 mi
4:51 PM77 °FScattered clouds.12 mph74%29.76 "Hg10 mi
3:51 PM75 °FLight rain. Mostly cloudy.9 mph79%29.80 "Hg9 mi
2:51 PM75 °FBroken clouds.6 mph82%29.77 "Hg10 mi
1:51 PM78 °FLight rain. Mostly cloudy.12 mph66%29.84 "Hg10 mi
12:51 PM78 °FMostly cloudy.13 mph66%29.83 "Hg10 mi
7:51 AM64 °FMore clouds than sun.16 mph75%29.90 "Hg10 mi
6:51 AM63 °FMostly cloudy.12 mph75%29.92 "Hg10 mi
5:51 AM64 °FOvercast.15 mph70%29.91 "Hg10 mi
4:51 AM64 °FHigh level clouds.14 mph68%29.92 "Hg10 mi
3:51 AM63 °FOvercast.12 mph70%29.90 "Hg10 mi
2:51 AM63 °FPassing clouds.12 mph68%29.91 "Hg10 mi
1:51 AM64 °FPassing clouds.12 mph65%29.93 "Hg10 mi
12:51 AM66 °FClear.13 mph59%29.91 "Hg10 mi
11:51 PM
Sep 19
67 °FPassing clouds.16 mph55%29.92 "Hg10 mi
10:51 PM68 °FPassing clouds.14 mph51%29.94 "Hg10 mi
9:51 PM68 °FPassing clouds.13 mph51%29.96 "Hg10 mi
8:51 PM69 °FPassing clouds.9 mph47%29.98 "Hg10 mi
Weather by CustomWeather, © 2014

See weather overviewHow to use our weather pages